Pensacola Naval Air Station/Forrest Sherman field
KNPA : now visible

Airfield :











YOU CAN JOIN US ON...

 
LOGIN :

Register | Disclaimer

   EN    FR    IT 

 









Legend :    VFR   Marginal VFR   IFR   Intensive IFR   Very Intensive IFR
Visi :
Ceiling :
>= 8 km
>= 3000ft
5 to 8 km
1000 to 3000 ft
1500m to 5 km
500 to 1000 ft
800 to 1500m
200 to 500 ft
< 800m
< 200 ft
Symbols :   Thunderstorms  Fog  Heavy snow  Heavy precipitations  Wind > 20 kt






- Airport Elevation : 28 ft


KNPA - Pensacola Naval Air Station/Forrest Sherman field

CURRENT METAR :
  • 241556Z 16005KT 10SM CLR 18/09 A3019 RMK SLP224 T01820094

EXPIRED METARs :
  • 241456Z 07003KT 10SM CLR 16/11 A3019 RMK SLP223 T01560106 51016
  • 241356Z 06004KT 10SM CLR 12/11 A3017 RMK SLP219 T01220106

TAF TAF KNPA
Valid from the 24 at 15:00 until the 25 at 15:00 UTC


2415/2515 VRB06KT 9999 SKC QNH3010INS
FM241900 18008KT 9999 FEW030 QNH3008INS
FM250000 VRB03KT 9999 FEW030 QNH3010INS
FM250500 00000KT 6000 BR SCT005 BKN015 QNH3010INS
TEMPO 2509/2513 1600 BR BKN003
FM251330 VRB05KT 9999 BKN015 QNH3012INS T21/2420Z T14/2512Z FN20033
KZJX FIR / North America



MET'MAP, your aeronautical weather chart ! - Copyright ORBIFLY December 2007 - Disclaimer

ORBIFLY MET'MAP TEAM :

Programming & Development : Alexandra Zaïnal
Concept & original design : Baudouin d'Aumeries
Assistance for programming : Marc-Olivier Méhu
Technical & hardware support : Manuel Goepfert

Contact : metmap@orbifly.com




SOURCES & CREDITS :

   NOAA       Earth
Advisory